Regional Weather Roundup
Issued by NWS

Home | Current Version | Previous Version | Graphics & Text | Print | Product List | Glossary On
Versions: 1 2 3 4 5 6 7 8 9 10 11 12 13 14 15 16 17 18 19 20 21 22 23 24 25 26 27 28 29 30 31 32 33 34 35 36 37 38 39 40 41 42 43 44 45 46 47 48 49 50
471
ASUS43 KIND 220159
RWRIN

WEATHER ROUNDUP FOR INDIANA
NATIONAL WEATHER SERVICE INDIANAPOLIS IN
1000 PM EDT WED JUN 21 2017

NOTE: "FAIR" INDICATES FEW OR NO CLOUDS BELOW 12,000 FEET WITH NO
SIGNIFICANT WEATHER AND/OR OBSTRUCTIONS TO VISIBILITY.

* - STATION DOES NOT REPORT WEATHER SUCH AS PRECIPITATION OR FOG.

+ - STATION NOT QUALITY CONTROLLED BY THE NATIONAL WEATHER SERVICE.
    USE DATA WITH CAUTION...ESPECIALLY DEWPOINT AND RELATIVE
    HUMIDITY OBSERVATIONS.

INZ001>003-010>013-019-020-220300-
NORTHWEST INDIANA

CITY           SKY/WX    TMP DP  RH WIND       PRES   REMARKS
GARY /AIRPORT/ MOCLDY    68  59  73 E3        29.91S
KNOX *+        CLEAR     72  52  49 CALM      29.92S
MICHIGAN CITY+ CLOUDY    70  57  64 CALM      29.92F
MONTICELLO +   CLEAR     75  68  79 CALM      29.91S
RENSSELAER +   CLEAR     75  63  64 CALM      29.91S

$$

LMZ046-743>745-220300-
SOUTHERN LAKE MICHIGAN

STATION/POSITION TIME  TEMP    WIND        PRES    WAVE
                       AIR SEA DIR/SP/G            HT
                 (UTC) (F)     (DEG/KT/KT) (MB)    (FT)
BURNS HARBOR     0140   69      80/  9/ 11 1013.2S
MICHIGAN CITY    0130   69      40/  8/  8   N/A
5NW MICH CITY    0150   69 68   70/  6/  8   N/A     1

$$

INZ004-005-014>016-021>024-220300-
NORTH CENTRAL INDIANA

CITY           SKY/WX    TMP DP  RH WIND       PRES   REMARKS
GOSHEN         PTCLDY    72  58  61 CALM      29.94R
SOUTH BEND     MOCLDY    74  56  53 S3        29.94R

$$

INZ006>009-017-018-025>027-220300-
NORTHEAST INDIANA

CITY           SKY/WX    TMP DP  RH WIND       PRES   REMARKS
FORT WAYNE     PTCLDY    72  63  73 E3        29.95R
KENDALLVILLE + PTCLDY    70  61  74 CALM      29.96R

$$

INZ028-029-035-036-043>045-051>053-220300-
WEST CENTRAL INDIANA

CITY           SKY/WX    TMP DP  RH WIND       PRES   REMARKS
CRAWFORDSVL +  MOCLDY   N/A N/A N/A SW3       29.93R
LAFAYETTE      PTCLDY    73  69  87 CALM      29.90R
TERRE HAUTE    CLOUDY    79  67  66 S7        29.93R

$$

INZ030>032-037>040-046>048-054>057-064-065-220300-
CENTRAL INDIANA

CITY           SKY/WX    TMP DP  RH WIND       PRES   REMARKS
COLUMBUS       PTCLDY    79  64  61 S10       29.95S
INDIANAPOLIS   CLOUDY    80  69  69 S9        29.93R
-EAGLE CREEK   CLOUDY    82  69  64 S8        29.93R
KOKOMO +       MOCLDY    77  69  76 S3        29.94R
MT COMFORT *+  CLOUDY    81  68  65 S6        29.94R
SHELBYVILLE    CLOUDY    80  68  66 S8        29.94R

$$

INZ033-034-041-042-049-050-058-059-220300-
EAST CENTRAL INDIANA

CITY           SKY/WX    TMP DP  RH WIND       PRES   REMARKS
MUNCIE         CLOUDY    77  70  79 SE3       29.93S
RICHMOND +     CLOUDY    75  64  69 SW10G16   29.97S

$$

INZ060-061-067>069-081>083-085>088-220300-
SOUTHWEST INDIANA

CITY           SKY/WX    TMP DP  RH WIND       PRES   REMARKS
EVANSVILLE     PTCLDY    81  67  62 S6        29.97R
HUNTINGBURG *+ PTCLDY    78  69  73 S5        29.98R

$$

INZ062-063-066-070>080-084-089>092-220300-
SOUTH CENTRAL AND SOUTHEAST INDIANA

CITY           SKY/WX    TMP DP  RH WIND       PRES   REMARKS
BLOOMINGTON    PTCLDY    79  68  69 SW7       29.96R
MADISON *+     CLEAR     79  64  61 S6        30.00S
SEYMOUR +      CLEAR     77  68  73 S6        29.96R

$$





USA.gov is the U.S. government's official web portal to all federal, state and local government web resources and services.